Private Wetterstation Wechselburg
Wetterdaten: Sonntag, 05.09.2021
Datum Zeit Temp. +2m Bodentemp. Temp.+5cm Temp. Wind Windchill X Diff Temp. Feuchte +2m Feuchte +5cm Luftdruck Regen Wind Richtung Richtung Sonnenschein Taupunkt Windchill Windben
05.09.2021 00:00 9,4 C 17,5 C 9,9 C 9,3 C 9,1 C 0,0 C 87 % 93 % 1018,4 hPa 0,0 l/m 0,0 km/h (0 Bft) O-NO 67 0 min 7,3 C 9,1 C 0,0 km/h (0 Bft)
05.09.2021 00:05 9,3 C 17,5 C 9,8 C 9,2 C 9,1 C 0,0 C 87 % 93 % 1018,4 hPa 0,0 l/m 0,0 km/h (0 Bft) O-NO 67 0 min 7,2 C 9,1 C 0,0 km/h (0 Bft)
05.09.2021 00:10 9,2 C 17,5 C 9,8 C 9,2 C 9,1 C 0,0 C 87 % 93 % 1018,4 hPa 0,0 l/m 0,0 km/h (0 Bft) O-NO 67 0 min 7,2 C 9,1 C 0,0 km/h (0 Bft)
05.09.2021 00:15 9,2 C 17,5 C 9,7 C 9,2 C 9,1 C 0,0 C 87 % 93 % 1018,6 hPa 0,0 l/m 0,0 km/h (0 Bft) O-NO 67 0 min 7,2 C 9,1 C 0,0 km/h (0 Bft)
05.09.2021 00:20 9,1 C 17,5 C 9,8 C 9,1 C 9,1 C 0,0 C 87 % 93 % 1018,6 hPa 0,0 l/m 0,0 km/h (0 Bft) O-NO 67 0 min 7,1 C 9,1 C 0,0 km/h (0 Bft)
05.09.2021 00:25 9,1 C 17,5 C 9,7 C 9,1 C 9,1 C 0,0 C 87 % 93 % 1018,6 hPa 0,0 l/m 0,0 km/h (0 Bft) O-NO 67 0 min 7,1 C 9,1 C 0,0 km/h (0 Bft)
05.09.2021 00:30 9,0 C 17,4 C 9,7 C 9,2 C 9,2 C 0,2 C 87 % 93 % 1018,6 hPa 0,0 l/m 0,0 km/h (0 Bft) O-NO 67 0 min 7,0 C 9,2 C 0,0 km/h (0 Bft)
05.09.2021 00:35 8,9 C 17,4 C 9,7 C 9,2 C 9,2 C 0,3 C 87 % 93 % 1019,2 hPa 0,0 l/m 0,0 km/h (0 Bft) O-NO 67 0 min 6,9 C 9,2 C 0,0 km/h (0 Bft)
05.09.2021 00:40 8,8 C 17,4 C 9,7 C 9,2 C 9,2 C 0,4 C 87 % 93 % 1019,2 hPa 0,0 l/m 0,0 km/h (0 Bft) O-NO 67 0 min 6,8 C 9,2 C 0,0 km/h (0 Bft)
05.09.2021 00:45 8,9 C 17,4 C 9,7 C 9,3 C 9,3 C 0,4 C 87 % 93 % 1019,2 hPa 0,0 l/m 0,0 km/h (0 Bft) O-NO 67 0 min 6,9 C 9,3 C 0,0 km/h (0 Bft)
05.09.2021 00:50 8,8 C 17,4 C 9,7 C 9,3 C 9,3 C 0,5 C 87 % 93 % 1019,2 hPa 0,0 l/m 0,0 km/h (0 Bft) O-NO 67 0 min 6,8 C 9,3 C 0,0 km/h (0 Bft)
05.09.2021 00:55 8,8 C 17,4 C 9,7 C 9,3 C 9,3 C 0,5 C 87 % 93 % 1018,8 hPa 0,0 l/m 0,0 km/h (0 Bft) O-NO 67 0 min 6,8 C 9,3 C 0,0 km/h (0 Bft)
05.09.2021 01:00 8,7 C 17,4 C 9,6 C 9,4 C 9,4 C 0,7 C 87 % 93 % 1018,8 hPa 0,0 l/m 0,0 km/h (0 Bft) O-NO 67 0 min 6,7 C 9,4 C 0,0 km/h (0 Bft)
05.09.2021 01:05 8,7 C 17,4 C 9,7 C 9,4 C 9,4 C 0,7 C 87 % 93 % 1018,8 hPa 0,0 l/m 0,0 km/h (0 Bft) O-NO 67 0 min 6,7 C 9,4 C 0,0 km/h (0 Bft)
05.09.2021 01:10 8,7 C 17,4 C 9,7 C 9,4 C 9,4 C 0,7 C 87 % 93 % 1018,8 hPa 0,0 l/m 0,0 km/h (0 Bft) O-NO 67 0 min 6,7 C 9,4 C 0,0 km/h (0 Bft)
05.09.2021 01:15 8,7 C 17,5 C 9,7 C 9,4 C 9,4 C 0,7 C 87 % 93 % 1018,9 hPa 0,0 l/m 0,0 km/h (0 Bft) O-NO 67 0 min 6,7 C 9,4 C 0,0 km/h (0 Bft)
05.09.2021 01:20 8,7 C 17,4 C 9,8 C 9,4 C 9,4 C 0,7 C 87 % 93 % 1018,9 hPa 0,0 l/m 0,0 km/h (0 Bft) O-NO 67 0 min 6,7 C 9,4 C 0,0 km/h (0 Bft)
05.09.2021 01:25 8,7 C 17,4 C 9,9 C 9,5 C 9,5 C 0,8 C 87 % 93 % 1018,9 hPa 0,0 l/m 0,0 km/h (0 Bft) O-NO 67 0 min 6,7 C 9,5 C 0,0 km/h (0 Bft)
05.09.2021 01:30 8,7 C 17,4 C 9,8 C 9,5 C 9,5 C 0,8 C 87 % 93 % 1018,9 hPa 0,0 l/m 0,0 km/h (0 Bft) O-NO 67 0 min 6,7 C 9,5 C 0,0 km/h (0 Bft)
05.09.2021 01:35 8,5 C 17,3 C 9,6 C 9,4 C 9,4 C 0,9 C 87 % 93 % 1018,9 hPa 0,0 l/m 0,0 km/h (0 Bft) O-NO 67 0 min 6,5 C 9,4 C 0,0 km/h (0 Bft)
05.09.2021 01:40 8,4 C 17,3 C 9,5 C 9,3 C 9,3 C 0,9 C 87 % 93 % 1018,9 hPa 0,0 l/m 0,0 km/h (0 Bft) O-NO 67 0 min 6,4 C 9,3 C 0,0 km/h (0 Bft)
05.09.2021 01:45 8,4 C 17,3 C 9,5 C 9,3 C 9,3 C 0,9 C 87 % 93 % 1018,9 hPa 0,0 l/m 0,0 km/h (0 Bft) O-NO 67 0 min 6,4 C 9,3 C 0,0 km/h (0 Bft)
05.09.2021 01:50 8,3 C 17,3 C 9,5 C 9,2 C 9,2 C 0,9 C 87 % 93 % 1018,9 hPa 0,0 l/m 0,0 km/h (0 Bft) O-NO 67 0 min 6,3 C 9,2 C 0,0 km/h (0 Bft)
05.09.2021 01:55 8,2 C 17,3 C 9,4 C 9,2 C 9,2 C 1,0 C 87 % 93 % 1019,1 hPa 0,0 l/m 0,0 km/h (0 Bft) O-NO 67 0 min 6,2 C 9,2 C 0,0 km/h (0 Bft)
05.09.2021 02:00 8,3 C 17,3 C 9,4 C 9,2 C 9,2 C 0,9 C 87 % 93 % 1019,1 hPa 0,0 l/m 0,0 km/h (0 Bft) O-NO 67 0 min 6,3 C 9,2 C 0,0 km/h (0 Bft)
05.09.2021 02:05 8,2 C 17,2 C 9,5 C 9,3 C 9,3 C 1,1 C 87 % 93 % 1019,1 hPa 0,0 l/m 0,0 km/h (0 Bft) O-NO 67 0 min 6,2 C 9,3 C 0,0 km/h (0 Bft)
05.09.2021 02:10 8,1 C 17,2 C 9,5 C 9,3 C 9,3 C 1,2 C 87 % 93 % 1019,1 hPa 0,0 l/m 0,0 km/h (0 Bft) O-NO 67 0 min 6,1 C 9,3 C 0,0 km/h (0 Bft)
05.09.2021 02:15 8,1 C 17,2 C 9,4 C 9,3 C 9,3 C 1,2 C 87 % 93 % 1019,1 hPa 0,0 l/m 0,0 km/h (0 Bft) O-NO 67 0 min 6,1 C 9,3 C 0,0 km/h (0 Bft)
05.09.2021 02:20 8,0 C 17,2 C 9,4 C 9,3 C 9,3 C 1,3 C 87 % 93 % 1019,1 hPa 0,0 l/m 0,0 km/h (0 Bft) O-NO 67 0 min 6,0 C 9,3 C 0,0 km/h (0 Bft)
05.09.2021 02:25 8,0 C 17,2 C 9,4 C 9,3 C 9,3 C 1,3 C 87 % 93 % 1019,1 hPa 0,0 l/m 0,0 km/h (0 Bft) O-NO 67 0 min 6,0 C 9,3 C 0,0 km/h (0 Bft)
05.09.2021 02:30 8,0 C 17,2 C 9,4 C 9,3 C 9,3 C 1,3 C 87 % 93 % 1019,1 hPa 0,0 l/m 0,0 km/h (0 Bft) O-NO 67 0 min 6,0 C 9,3 C 0,0 km/h (0 Bft)
05.09.2021 02:35 7,9 C 17,2 C 9,4 C 9,2 C 9,2 C 1,3 C 87 % 93 % 1018,9 hPa 0,0 l/m 0,0 km/h (0 Bft) O-NO 67 0 min 5,9 C 9,2 C 0,0 km/h (0 Bft)
05.09.2021 02:40 7,9 C 17,2 C 9,4 C 9,2 C 9,2 C 1,3 C 87 % 93 % 1018,9 hPa 0,0 l/m 0,0 km/h (0 Bft) O-NO 67 0 min 5,9 C 9,2 C 0,0 km/h (0 Bft)
05.09.2021 02:45 7,9 C 17,1 C 9,4 C 9,3 C 9,3 C 1,4 C 87 % 94 % 1018,9 hPa 0,0 l/m 0,0 km/h (0 Bft) O-NO 67 0 min 5,9 C 9,3 C 0,0 km/h (0 Bft)
05.09.2021 02:50 7,9 C 17,1 C 9,5 C 9,3 C 9,3 C 1,4 C 87 % 94 % 1018,9 hPa 0,0 l/m 0,0 km/h (0 Bft) O-NO 67 0 min 5,9 C 9,3 C 0,0 km/h (0 Bft)
05.09.2021 02:55 7,9 C 17,1 C 9,5 C 9,4 C 9,4 C 1,5 C 87 % 94 % 1019,4 hPa 0,0 l/m 0,0 km/h (0 Bft) O-NO 67 0 min 5,9 C 9,4 C 0,0 km/h (0 Bft)
05.09.2021 03:00 7,9 C 17,1 C 9,6 C 9,3 C 9,3 C 1,4 C 87 % 94 % 1019,4 hPa 0,0 l/m 0,0 km/h (0 Bft) O-NO 67 0 min 5,9 C 9,3 C 0,0 km/h (0 Bft)
05.09.2021 03:05 7,9 C 17,1 C 9,6 C 9,4 C 9,4 C 1,5 C 87 % 94 % 1019,4 hPa 0,0 l/m 0,0 km/h (0 Bft) O-NO 67 0 min 5,9 C 9,4 C 0,0 km/h (0 Bft)
05.09.2021 03:10 7,9 C 17,1 C 9,6 C 9,5 C 9,5 C 1,6 C 87 % 94 % 1019,4 hPa 0,0 l/m 0,0 km/h (0 Bft) O-NO 67 0 min 5,9 C 9,5 C 0,0 km/h (0 Bft)
05.09.2021 03:15 7,9 C 17,1 C 9,6 C 9,6 C 9,6 C 1,7 C 87 % 94 % 1019,8 hPa 0,0 l/m 0,0 km/h (0 Bft) O-NO 67 0 min 5,9 C 9,6 C 0,0 km/h (0 Bft)
05.09.2021 03:20 7,9 C 17,1 C 9,7 C 9,6 C 9,6 C 1,7 C 87 % 94 % 1019,8 hPa 0,0 l/m 0,0 km/h (0 Bft) O-NO 67 0 min 5,9 C 9,6 C 0,0 km/h (0 Bft)
05.09.2021 03:25 8,0 C 17,1 C 9,7 C 9,6 C 9,6 C 1,6 C 87 % 94 % 1019,8 hPa 0,0 l/m 0,0 km/h (0 Bft) O-NO 67 0 min 6,0 C 9,6 C 0,0 km/h (0 Bft)
05.09.2021 03:30 8,0 C 17,1 C 9,8 C 9,7 C 9,7 C 1,7 C 87 % 94 % 1019,8 hPa 0,0 l/m 0,0 km/h (0 Bft) O-NO 67 0 min 6,0 C 9,7 C 0,0 km/h (0 Bft)
05.09.2021 03:35 8,0 C 17,1 C 9,8 C 9,8 C 9,8 C 1,8 C 87 % 94 % 1019,4 hPa 0,0 l/m 0,0 km/h (0 Bft) O-NO 67 0 min 6,0 C 9,8 C 0,0 km/h (0 Bft)
05.09.2021 03:40 8,1 C 17,1 C 9,8 C 9,8 C 9,8 C 1,7 C 87 % 94 % 1019,4 hPa 0,0 l/m 0,0 km/h (0 Bft) O-NO 67 0 min 6,1 C 9,8 C 0,0 km/h (0 Bft)
05.09.2021 03:45 8,1 C 17,0 C 9,9 C 9,8 C 9,8 C 1,7 C 87 % 94 % 1019,4 hPa 0,0 l/m 0,0 km/h (0 Bft) O-NO 67 0 min 6,1 C 9,8 C 0,0 km/h (0 Bft)
05.09.2021 03:50 8,1 C 17,0 C 9,9 C 9,8 C 9,8 C 1,7 C 87 % 94 % 1019,4 hPa 0,0 l/m 0,0 km/h (0 Bft) O-NO 67 0 min 6,1 C 9,8 C 0,0 km/h (0 Bft)
05.09.2021 03:55 8,1 C 17,0 C 9,9 C 9,8 C 9,8 C 1,7 C 87 % 94 % 1019,3 hPa 0,0 l/m 0,0 km/h (0 Bft) O-NO 67 0 min 6,1 C 9,8 C 0,0 km/h (0 Bft)
05.09.2021 04:00 8,1 C 17,0 C 9,9 C 9,8 C 9,8 C 1,7 C 87 % 94 % 1019,3 hPa 0,0 l/m 0,0 km/h (0 Bft) O-NO 67 0 min 6,1 C 9,8 C 0,0 km/h (0 Bft)
05.09.2021 04:05 8,2 C 17,0 C 9,9 C 9,7 C 9,7 C 1,5 C 87 % 94 % 1019,3 hPa 0,0 l/m 0,0 km/h (0 Bft) O-NO 67 0 min 6,2 C 9,7 C 0,0 km/h (0 Bft)
05.09.2021 04:10 8,3 C 17,0 C 9,8 C 9,7 C 9,7 C 1,4 C 87 % 94 % 1019,3 hPa 0,0 l/m 0,0 km/h (0 Bft) O-NO 67 0 min 6,3 C 9,7 C 0,0 km/h (0 Bft)
05.09.2021 04:15 8,2 C 17,0 C 9,8 C 9,8 C 9,8 C 1,6 C 87 % 94 % 1019,2 hPa 0,0 l/m 0,0 km/h (0 Bft) O-NO 67 0 min 6,2 C 9,8 C 0,0 km/h (0 Bft)
05.09.2021 04:20 8,2 C 17,0 C 9,9 C 9,8 C 9,8 C 1,6 C 87 % 94 % 1019,2 hPa 0,0 l/m 0,0 km/h (0 Bft) O-NO 67 0 min 6,2 C 9,8 C 0,0 km/h (0 Bft)
05.09.2021 04:25 8,3 C 17,0 C 9,9 C 9,8 C 9,8 C 1,5 C 87 % 94 % 1019,2 hPa 0,0 l/m 0,0 km/h (0 Bft) O-NO 67 0 min 6,3 C 9,8 C 0,0 km/h (0 Bft)
05.09.2021 04:30 8,3 C 17,0 C 9,9 C 9,9 C 9,9 C 1,6 C 87 % 94 % 1019,2 hPa 0,0 l/m 0,0 km/h (0 Bft) O-NO 67 0 min 6,3 C 9,9 C 0,0 km/h (0 Bft)
05.09.2021 04:35 8,3 C 17,0 C 10,0 C 9,9 C 9,9 C 1,6 C 87 % 94 % 1019,3 hPa 0,0 l/m 0,0 km/h (0 Bft) O-NO 67 0 min 6,3 C 9,9 C 0,0 km/h (0 Bft)
05.09.2021 04:40 8,3 C 17,0 C 10,0 C 9,9 C 9,9 C 1,6 C 87 % 94 % 1019,3 hPa 0,0 l/m 0,0 km/h (0 Bft) O-NO 67 0 min 6,3 C 9,9 C 0,0 km/h (0 Bft)
05.09.2021 04:45 8,3 C 17,0 C 10,0 C 9,9 C 9,9 C 1,6 C 87 % 94 % 1019,3 hPa 0,0 l/m 0,0 km/h (0 Bft) O-NO 67 0 min 6,3 C 9,9 C 0,0 km/h (0 Bft)
05.09.2021 04:50 8,4 C 17,0 C 10,0 C 9,9 C 9,9 C 1,5 C 87 % 94 % 1019,3 hPa 0,0 l/m 0,0 km/h (0 Bft) O-NO 67 0 min 6,4 C 9,9 C 0,0 km/h (0 Bft)
05.09.2021 04:55 8,5 C 17,0 C 10,1 C 10,0 C 10,0 C 1,5 C 87 % 94 % 1019,2 hPa 0,0 l/m 0,0 km/h (0 Bft) O-NO 67 0 min 6,5 C 10,0 C 0,0 km/h (0 Bft)
05.09.2021 05:00 8,4 C 17,0 C 10,1 C 10,0 C 10,0 C 1,6 C 87 % 94 % 1019,2 hPa 0,0 l/m 0,0 km/h (0 Bft) O-NO 67 0 min 6,4 C 10,0 C 0,0 km/h (0 Bft)
05.09.2021 05:05 8,4 C 17,0 C 10,1 C 10,0 C 10,0 C 1,6 C 87 % 94 % 1019,2 hPa 0,0 l/m 0,0 km/h (0 Bft) O-NO 67 0 min 6,4 C 10,0 C 0,0 km/h (0 Bft)
05.09.2021 05:10 8,5 C 17,0 C 10,2 C 10,1 C 10,1 C 1,6 C 87 % 94 % 1019,2 hPa 0,0 l/m 0,0 km/h (0 Bft) O-NO 67 0 min 6,5 C 10,1 C 0,0 km/h (0 Bft)
05.09.2021 05:15 8,6 C 17,0 C 10,2 C 10,2 C 10,2 C 1,6 C 87 % 94 % 1019,4 hPa 0,0 l/m 0,0 km/h (0 Bft) O-NO 67 0 min 6,6 C 10,2 C 0,0 km/h (0 Bft)
05.09.2021 05:20 8,7 C 17,0 C 10,2 C 10,2 C 10,2 C 1,5 C 87 % 94 % 1019,4 hPa 0,0 l/m 0,0 km/h (0 Bft) O-NO 67 0 min 6,7 C 10,2 C 0,0 km/h (0 Bft)
05.09.2021 05:25 8,7 C 17,0 C 10,3 C 10,3 C 10,3 C 1,6 C 87 % 94 % 1019,4 hPa 0,0 l/m 0,0 km/h (0 Bft) O-NO 67 0 min 6,7 C 10,3 C 0,0 km/h (0 Bft)
05.09.2021 05:30 8,7 C 17,0 C 10,3 C 10,4 C 10,4 C 1,7 C 87 % 94 % 1019,4 hPa 0,0 l/m 0,0 km/h (0 Bft) O-NO 67 0 min 6,7 C 10,4 C 0,0 km/h (0 Bft)
05.09.2021 05:35 8,7 C 17,0 C 10,3 C 10,4 C 10,4 C 1,7 C 87 % 94 % 1019,3 hPa 0,0 l/m 0,0 km/h (0 Bft) O-NO 67 0 min 6,7 C 10,4 C 0,0 km/h (0 Bft)
05.09.2021 05:40 8,8 C 17,0 C 10,3 C 10,4 C 10,4 C 1,6 C 87 % 94 % 1019,3 hPa 0,0 l/m 0,0 km/h (0 Bft) O-NO 67 0 min 6,8 C 10,4 C 0,0 km/h (0 Bft)
05.09.2021 05:45 8,8 C 17,0 C 10,4 C 10,5 C 10,5 C 1,7 C 87 % 94 % 1019,3 hPa 0,0 l/m 0,0 km/h (0 Bft) O-NO 67 0 min 6,8 C 10,5 C 0,0 km/h (0 Bft)
05.09.2021 05:50 8,8 C 17,0 C 10,5 C 10,6 C 10,6 C 1,8 C 87 % 94 % 1019,3 hPa 0,0 l/m 0,0 km/h (0 Bft) O-NO 67 0 min 6,8 C 10,6 C 0,0 km/h (0 Bft)
05.09.2021 05:55 8,9 C 17,0 C 10,5 C 10,6 C 10,6 C 1,7 C 87 % 94 % 1019,2 hPa 0,0 l/m 0,0 km/h (0 Bft) O-NO 67 0 min 6,9 C 10,6 C 0,0 km/h (0 Bft)
05.09.2021 06:00 9,0 C 17,0 C 10,6 C 10,6 C 10,6 C 1,6 C 87 % 94 % 1019,2 hPa 0,0 l/m 0,0 km/h (0 Bft) O-NO 67 0 min 7,0 C 10,6 C 0,0 km/h (0 Bft)
05.09.2021 06:05 9,1 C 17,0 C 10,6 C 10,7 C 10,7 C 1,6 C 87 % 94 % 1019,2 hPa 0,0 l/m 0,0 km/h (0 Bft) O-NO 67 0 min 7,1 C 10,7 C 0,0 km/h (0 Bft)
05.09.2021 06:10 9,1 C 16,9 C 10,7 C 10,8 C 10,8 C 1,7 C 87 % 94 % 1019,2 hPa 0,0 l/m 0,0 km/h (0 Bft) O-NO 67 0 min 7,1 C 10,8 C 0,0 km/h (0 Bft)
05.09.2021 06:15 9,1 C 17,0 C 10,7 C 10,8 C 10,8 C 1,7 C 87 % 94 % 1019,4 hPa 0,0 l/m 0,0 km/h (0 Bft) O-NO 67 0 min 7,1 C 10,8 C 0,0 km/h (0 Bft)
05.09.2021 06:20 9,2 C 17,0 C 10,8 C 10,8 C 10,8 C 1,6 C 87 % 94 % 1019,4 hPa 0,0 l/m 0,0 km/h (0 Bft) O-NO 67 0 min 7,2 C 10,8 C 0,0 km/h (0 Bft)
05.09.2021 06:25 9,2 C 17,0 C 10,8 C 10,9 C 10,9 C 1,7 C 87 % 94 % 1019,4 hPa 0,0 l/m 0,0 km/h (0 Bft) O-NO 67 0 min 7,2 C 10,9 C 0,0 km/h (0 Bft)
05.09.2021 06:30 9,3 C 17,0 C 10,7 C 10,9 C 10,9 C 1,6 C 87 % 94 % 1019,4 hPa 0,0 l/m 0,0 km/h (0 Bft) O-NO 67 0 min 7,2 C 10,9 C 0,0 km/h (0 Bft)
05.09.2021 06:35 9,3 C 16,9 C 10,8 C 11,0 C 11,0 C 1,7 C 87 % 94 % 1019,6 hPa 0,0 l/m 0,0 km/h (0 Bft) O-NO 67 0 min 7,2 C 11,0 C 0,0 km/h (0 Bft)
05.09.2021 06:40 9,3 C 16,9 C 10,8 C 11,0 C 11,0 C 1,7 C 87 % 94 % 1019,6 hPa 0,0 l/m 0,0 km/h (0 Bft) O-NO 67 5 min 7,2 C 11,0 C 0,0 km/h (0 Bft)
05.09.2021 06:45 9,3 C 16,9 C 10,8 C 11,0 C 11,0 C 1,7 C 87 % 94 % 1019,6 hPa 0,0 l/m 0,0 km/h (0 Bft) O-NO 67 5 min 7,2 C 11,0 C 0,0 km/h (0 Bft)
05.09.2021 06:50 9,5 C 16,9 C 10,9 C 11,0 C 11,0 C 1,5 C 88 % 94 % 1019,6 hPa 0,0 l/m 0,0 km/h (0 Bft) O-NO 67 5 min 7,6 C 11,0 C 0,0 km/h (0 Bft)
05.09.2021 06:55 9,5 C 16,9 C 11,0 C 11,1 C 11,1 C 1,6 C 88 % 94 % 1019,6 hPa 0,0 l/m 0,0 km/h (0 Bft) O-NO 67 5 min 7,6 C 11,1 C 0,0 km/h (0 Bft)
05.09.2021 07:00 9,5 C 16,9 C 11,1 C 11,1 C 11,1 C 1,6 C 88 % 94 % 1019,6 hPa 0,0 l/m 0,0 km/h (0 Bft) O-NO 67 5 min 7,6 C 11,1 C 0,0 km/h (0 Bft)
05.09.2021 07:05 9,6 C 16,9 C 11,1 C 11,2 C 11,2 C 1,6 C 88 % 94 % 1019,6 hPa 0,0 l/m 0,0 km/h (0 Bft) O-NO 67 5 min 7,7 C 11,2 C 0,0 km/h (0 Bft)
05.09.2021 07:10 9,6 C 16,9 C 11,1 C 11,2 C 11,2 C 1,6 C 88 % 94 % 1019,6 hPa 0,0 l/m 0,0 km/h (0 Bft) O-NO 67 5 min 7,7 C 11,2 C 0,0 km/h (0 Bft)
05.09.2021 07:15 9,7 C 16,9 C 11,1 C 11,2 C 11,2 C 1,5 C 88 % 94 % 1020,0 hPa 0,0 l/m 0,0 km/h (0 Bft) O-NO 67 5 min 7,8 C 11,2 C 0,0 km/h (0 Bft)
05.09.2021 07:20 9,7 C 16,9 C 11,1 C 11,3 C 11,3 C 1,6 C 88 % 94 % 1020,0 hPa 0,0 l/m 0,0 km/h (0 Bft) O-NO 67 5 min 7,8 C 11,3 C 0,0 km/h (0 Bft)
05.09.2021 07:25 9,9 C 16,9 C 11,1 C 11,4 C 11,4 C 1,5 C 88 % 94 % 1020,0 hPa 0,0 l/m 0,0 km/h (0 Bft) O-NO 67 5 min 8,0 C 11,4 C 0,0 km/h (0 Bft)
05.09.2021 07:30 9,8 C 16,9 C 11,1 C 11,4 C 11,4 C 1,6 C 88 % 94 % 1020,0 hPa 0,0 l/m 0,0 km/h (0 Bft) O-NO 67 5 min 7,9 C 11,4 C 0,0 km/h (0 Bft)
05.09.2021 07:35 9,9 C 16,9 C 11,3 C 11,6 C 11,6 C 1,7 C 88 % 94 % 1020,0 hPa 0,0 l/m 0,0 km/h (0 Bft) O-NO 67 5 min 8,0 C 11,6 C 0,0 km/h (0 Bft)
05.09.2021 07:40 10,0 C 16,9 C 11,3 C 11,6 C 11,6 C 1,6 C 88 % 94 % 1020,0 hPa 0,0 l/m 0,0 km/h (0 Bft) O-NO 67 0 min 8,1 C 11,6 C 0,0 km/h (0 Bft)
05.09.2021 07:45 10,0 C 16,9 C 11,4 C 11,6 C 11,6 C 1,6 C 88 % 94 % 1020,0 hPa 0,0 l/m 0,0 km/h (0 Bft) O-NO 67 0 min 8,1 C 11,6 C 0,0 km/h (0 Bft)
05.09.2021 07:50 10,1 C 16,9 C 11,4 C 11,7 C 11,7 C 1,6 C 88 % 94 % 1020,0 hPa 0,0 l/m 0,0 km/h (0 Bft) O-NO 67 0 min 8,2 C 11,7 C 0,0 km/h (0 Bft)
05.09.2021 07:55 10,3 C 16,9 C 11,5 C 11,8 C 11,8 C 1,5 C 88 % 94 % 1020,6 hPa 0,0 l/m 0,0 km/h (0 Bft) O-NO 67 0 min 8,4 C 11,8 C 0,0 km/h (0 Bft)
05.09.2021 08:00 10,3 C 16,9 C 11,6 C 12,0 C 12,0 C 1,7 C 88 % 94 % 1020,6 hPa 0,0 l/m 0,0 km/h (0 Bft) O-NO 67 0 min 8,4 C 12,0 C 0,0 km/h (0 Bft)
05.09.2021 08:05 10,3 C 16,9 C 11,6 C 12,0 C 12,0 C 1,7 C 88 % 94 % 1020,6 hPa 0,0 l/m 0,0 km/h (0 Bft) O-NO 67 0 min 8,4 C 12,0 C 0,0 km/h (0 Bft)
05.09.2021 08:10 10,3 C 16,9 C 11,7 C 12,1 C 12,1 C 1,8 C 88 % 94 % 1020,6 hPa 0,0 l/m 0,0 km/h (0 Bft) O-NO 67 0 min 8,4 C 12,1 C 0,0 km/h (0 Bft)
05.09.2021 08:15 10,4 C 16,9 C 11,7 C 12,2 C 12,2 C 1,8 C 87 % 94 % 1019,9 hPa 0,0 l/m 0,0 km/h (0 Bft) O-NO 67 0 min 8,3 C 12,2 C 0,0 km/h (0 Bft)
05.09.2021 08:20 10,5 C 16,9 C 11,8 C 12,2 C 12,2 C 1,7 C 87 % 94 % 1019,9 hPa 0,0 l/m 0,0 km/h (0 Bft) O-NO 67 0 min 8,4 C 12,2 C 0,0 km/h (0 Bft)
05.09.2021 08:25 10,7 C 16,9 C 11,9 C 12,4 C 12,4 C 1,7 C 87 % 94 % 1019,9 hPa 0,0 l/m 0,0 km/h (0 Bft) O-NO 67 0 min 8,6 C 12,4 C 0,0 km/h (0 Bft)
05.09.2021 08:30 10,7 C 17,0 C 11,9 C 12,4 C 12,4 C 1,7 C 87 % 94 % 1019,9 hPa 0,0 l/m 0,0 km/h (0 Bft) O-NO 67 0 min 8,6 C 12,4 C 0,0 km/h (0 Bft)
05.09.2021 08:35 10,9 C 17,0 C 12,1 C 12,6 C 12,6 C 1,7 C 88 % 95 % 1020,1 hPa 0,0 l/m 0,0 km/h (0 Bft) O-NO 67 0 min 9,0 C 12,6 C 0,0 km/h (0 Bft)
05.09.2021 08:40 10,9 C 17,0 C 12,2 C 12,7 C 12,7 C 1,8 C 88 % 95 % 1020,1 hPa 0,0 l/m 0,0 km/h (0 Bft) O-NO 67 0 min 9,0 C 12,7 C 0,0 km/h (0 Bft)
05.09.2021 08:45 11,0 C 17,0 C 12,3 C 12,8 C 12,8 C 1,8 C 88 % 94 % 1020,1 hPa 0,0 l/m 0,0 km/h (0 Bft) O-NO 67 0 min 9,1 C 12,8 C 0,0 km/h (0 Bft)
05.09.2021 08:50 11,3 C 17,0 C 12,4 C 13,0 C 13,0 C 1,7 C 88 % 94 % 1020,1 hPa 0,0 l/m 0,0 km/h (0 Bft) O-NO 67 0 min 9,4 C 13,0 C 0,0 km/h (0 Bft)
05.09.2021 08:55 11,4 C 17,0 C 12,6 C 13,1 C 13,1 C 1,7 C 88 % 94 % 1020,4 hPa 0,0 l/m 0,0 km/h (0 Bft) O-NO 67 0 min 9,5 C 13,1 C 0,0 km/h (0 Bft)
05.09.2021 09:00 11,5 C 17,0 C 12,6 C 13,1 C 13,1 C 1,6 C 88 % 94 % 1020,4 hPa 0,0 l/m 0,0 km/h (0 Bft) O-NO 67 0 min 9,6 C 13,1 C 0,0 km/h (0 Bft)
05.09.2021 09:05 11,7 C 17,0 C 12,6 C 13,3 C 13,3 C 1,6 C 88 % 94 % 1020,4 hPa 0,0 l/m 0,0 km/h (0 Bft) O-NO 67 0 min 9,8 C 13,3 C 0,0 km/h (0 Bft)
05.09.2021 09:10 11,7 C 17,0 C 12,7 C 13,4 C 13,4 C 1,7 C 87 % 94 % 1020,4 hPa 0,0 l/m 0,0 km/h (0 Bft) O-NO 67 0 min 9,6 C 13,4 C 0,0 km/h (0 Bft)
05.09.2021 09:15 11,7 C 16,9 C 12,7 C 13,4 C 13,4 C 1,7 C 88 % 94 % 1020,2 hPa 0,0 l/m 0,2 km/h (0 Bft) O-NO 67 0 min 9,8 C 13,4 C 0,0 km/h (0 Bft)
05.09.2021 09:20 11,8 C 16,9 C 12,8 C 13,4 C 13,4 C 1,6 C 87 % 94 % 1020,2 hPa 0,0 l/m 0,2 km/h (0 Bft) O-NO 67 0 min 9,7 C 13,4 C 0,0 km/h (0 Bft)
05.09.2021 09:25 11,9 C 16,9 C 12,9 C 13,4 C 13,4 C 1,5 C 87 % 94 % 1020,2 hPa 0,0 l/m 0,0 km/h (0 Bft) O-NO 67 0 min 9,8 C 13,4 C 0,0 km/h (0 Bft)
05.09.2021 09:30 11,9 C 16,9 C 12,9 C 13,5 C 13,5 C 1,6 C 87 % 94 % 1020,2 hPa 0,0 l/m 0,2 km/h (0 Bft) NW 315 0 min 9,8 C 13,5 C 0,0 km/h (0 Bft)
05.09.2021 09:35 11,9 C 16,9 C 13,0 C 13,6 C 13,6 C 1,7 C 87 % 94 % 1020,6 hPa 0,0 l/m 0,2 km/h (0 Bft) NW 315 0 min 9,8 C 13,6 C 2,9 km/h (1 Bft)
05.09.2021 09:40 12,0 C 16,9 C 13,1 C 13,8 C 13,8 C 1,8 C 87 % 94 % 1020,6 hPa 0,0 l/m 0,0 km/h (0 Bft) NW 315 0 min 9,9 C 13,8 C 0,0 km/h (0 Bft)
05.09.2021 09:45 12,1 C 16,9 C 13,1 C 14,0 C 14,0 C 1,9 C 87 % 94 % 1020,6 hPa 0,0 l/m 0,0 km/h (0 Bft) W-NW 292 0 min 10,0 C 14,0 C 0,0 km/h (0 Bft)
05.09.2021 09:50 12,1 C 16,9 C 13,1 C 14,0 C 14,0 C 1,9 C 87 % 94 % 1020,6 hPa 0,0 l/m 0,0 km/h (0 Bft) NW 315 0 min 10,0 C 14,0 C 0,0 km/h (0 Bft)
05.09.2021 09:55 12,3 C 17,0 C 13,1 C 14,1 C 14,1 C 1,8 C 87 % 94 % 1020,6 hPa 0,0 l/m 0,2 km/h (0 Bft) NW 315 0 min 10,2 C 14,1 C 0,0 km/h (0 Bft)
05.09.2021 10:00 12,2 C 17,0 C 13,3 C 14,1 C 14,1 C 1,9 C 87 % 94 % 1020,6 hPa 0,0 l/m 0,0 km/h (0 Bft) NW 315 0 min 10,1 C 14,1 C 0,0 km/h (0 Bft)
05.09.2021 10:05 12,3 C 17,0 C 13,3 C 14,4 C 14,4 C 2,1 C 87 % 94 % 1020,6 hPa 0,0 l/m 0,0 km/h (0 Bft) NW 315 0 min 10,2 C 14,4 C 0,0 km/h (0 Bft)
05.09.2021 10:10 12,4 C 17,0 C 13,4 C 14,5 C 14,5 C 2,1 C 88 % 94 % 1020,6 hPa 0,0 l/m 0,0 km/h (0 Bft) W 270 0 min 10,5 C 14,5 C 1,6 km/h (1 Bft)
05.09.2021 10:15 12,5 C 17,0 C 13,4 C 14,6 C 14,6 C 2,1 C 88 % 94 % 1020,8 hPa 0,0 l/m 0,3 km/h (0 Bft) W-NW 292 0 min 10,6 C 14,6 C 1,8 km/h (1 Bft)
05.09.2021 10:20 12,5 C 17,0 C 13,4 C 14,6 C 14,6 C 2,1 C 88 % 94 % 1020,8 hPa 0,0 l/m 0,6 km/h (0 Bft) NW 315 0 min 10,6 C 14,6 C 0,0 km/h (0 Bft)
05.09.2021 10:25 12,5 C 17,0 C 13,5 C 14,7 C 14,7 C 2,2 C 88 % 94 % 1020,8 hPa 0,0 l/m 0,3 km/h (0 Bft) NW 315 0 min 10,6 C 14,7 C 0,0 km/h (0 Bft)
05.09.2021 10:30 12,7 C 17,0 C 13,5 C 14,9 C 14,9 C 2,2 C 88 % 94 % 1020,8 hPa 0,0 l/m 0,2 km/h (0 Bft) NW 315 0 min 10,8 C 14,9 C 0,0 km/h (0 Bft)
05.09.2021 10:35 12,7 C 17,0 C 13,6 C 15,1 C 15,1 C 2,4 C 88 % 94 % 1021,0 hPa 0,0 l/m 0,0 km/h (0 Bft) W-SW 247 0 min 10,8 C 15,1 C 0,0 km/h (0 Bft)
05.09.2021 10:40 12,8 C 17,0 C 13,6 C 15,3 C 15,3 C 2,5 C 88 % 94 % 1021,0 hPa 0,0 l/m 0,0 km/h (0 Bft) N-NW 337 0 min 10,9 C 15,3 C 0,0 km/h (0 Bft)
05.09.2021 10:45 12,8 C 17,0 C 13,8 C 15,4 C 15,4 C 2,6 C 88 % 94 % 1021,0 hPa 0,0 l/m 0,0 km/h (0 Bft) N-NW 337 0 min 10,9 C 15,4 C 0,0 km/h (0 Bft)
05.09.2021 10:50 12,8 C 17,0 C 13,9 C 15,5 C 15,5 C 2,7 C 88 % 94 % 1021,0 hPa 0,0 l/m 0,0 km/h (0 Bft) N-NW 337 0 min 10,9 C 15,5 C 0,0 km/h (0 Bft)
05.09.2021 10:55 12,9 C 17,0 C 13,9 C 15,6 C 15,6 C 2,7 C 88 % 94 % 1020,6 hPa 0,0 l/m 0,2 km/h (0 Bft) N-NW 337 0 min 11,0 C 15,6 C 4,0 km/h (1 Bft)
05.09.2021 11:00 12,8 C 17,0 C 13,9 C 15,6 C 15,6 C 2,8 C 88 % 94 % 1020,6 hPa 0,0 l/m 1,0 km/h (0 Bft) NO 45 0 min 10,9 C 15,6 C 0,0 km/h (0 Bft)
05.09.2021 11:05 12,8 C 17,0 C 13,9 C 15,6 C 15,6 C 2,8 C 88 % 94 % 1020,6 hPa 0,0 l/m 1,3 km/h (1 Bft) O-NO 67 0 min 10,9 C 15,6 C 1,9 km/h (1 Bft)
05.09.2021 11:10 12,9 C 17,0 C 14,1 C 15,7 C 15,7 C 2,8 C 88 % 94 % 1020,6 hPa 0,0 l/m 1,0 km/h (0 Bft) O-NO 67 0 min 11,0 C 15,7 C 2,7 km/h (1 Bft)
05.09.2021 11:15 12,9 C 17,1 C 14,2 C 15,7 C 15,7 C 2,8 C 87 % 93 % 1020,8 hPa 0,0 l/m 1,9 km/h (1 Bft) NO 45 0 min 10,8 C 15,7 C 3,7 km/h (1 Bft)
05.09.2021 11:20 12,9 C 17,1 C 14,2 C 15,7 C 15,7 C 2,8 C 87 % 93 % 1020,8 hPa 0,0 l/m 1,9 km/h (1 Bft) O-NO 67 0 min 10,8 C 15,7 C 0,0 km/h (0 Bft)
05.09.2021 11:25 13,0 C 17,0 C 14,3 C 15,9 C 15,9 C 2,9 C 87 % 93 % 1020,8 hPa 0,0 l/m 1,1 km/h (1 Bft) NO 45 0 min 10,9 C 15,9 C 0,0 km/h (0 Bft)
05.09.2021 11:30 13,1 C 17,0 C 14,3 C 16,3 C 16,3 C 3,2 C 87 % 93 % 1020,8 hPa 0,0 l/m 0,5 km/h (0 Bft) SW 225 0 min 11,0 C 16,3 C 0,0 km/h (0 Bft)
05.09.2021 11:35 13,2 C 17,0 C 14,5 C 16,7 C 16,7 C 3,5 C 87 % 93 % 1020,9 hPa 0,0 l/m 0,5 km/h (0 Bft) W 270 5 min 11,1 C 16,7 C 1,9 km/h (1 Bft)
05.09.2021 11:40 13,3 C 17,0 C 14,5 C 16,7 C 16,7 C 3,4 C 87 % 93 % 1020,9 hPa 0,0 l/m 0,5 km/h (0 Bft) W 270 5 min 11,2 C 16,7 C 0,0 km/h (0 Bft)
05.09.2021 11:45 13,4 C 17,0 C 14,6 C 16,9 C 16,9 C 3,5 C 87 % 93 % 1020,9 hPa 0,0 l/m 0,3 km/h (0 Bft) W 270 5 min 11,3 C 16,9 C 0,0 km/h (0 Bft)
05.09.2021 11:50 13,7 C 17,0 C 14,7 C 17,2 C 17,2 C 3,5 C 87 % 92 % 1020,9 hPa 0,0 l/m 0,0 km/h (0 Bft) N-NW 337 5 min 11,6 C 17,2 C 0,0 km/h (0 Bft)
05.09.2021 11:55 13,7 C 17,0 C 14,7 C 17,4 C 17,4 C 3,7 C 87 % 92 % 1021,0 hPa 0,0 l/m 0,0 km/h (0 Bft) W-SW 247 5 min 11,6 C 17,4 C 0,0 km/h (0 Bft)
05.09.2021 12:00 13,7 C 17,0 C 14,9 C 17,6 C 17,6 C 3,9 C 87 % 92 % 1021,0 hPa 0,0 l/m 0,2 km/h (0 Bft) W-SW 247 5 min 11,6 C 17,6 C 1,6 km/h (1 Bft)
05.09.2021 12:05 13,9 C 17,0 C 15,1 C 18,0 C 18,0 C 4,1 C 87 % 93 % 1021,0 hPa 0,0 l/m 0,2 km/h (0 Bft) S 180 5 min 11,8 C 18,0 C 0,0 km/h (0 Bft)
05.09.2021 12:10 14,1 C 17,0 C 15,2 C 18,3 C 18,3 C 4,2 C 87 % 92 % 1021,0 hPa 0,0 l/m 0,2 km/h (0 Bft) W-SW 247 5 min 12,0 C 18,3 C 0,0 km/h (0 Bft)
05.09.2021 12:15 14,2 C 17,0 C 15,5 C 19,0 C 19,0 C 4,8 C 86 % 92 % 1020,9 hPa 0,0 l/m 0,2 km/h (0 Bft) W-SW 247 5 min 11,9 C 19,0 C 0,0 km/h (0 Bft)
05.09.2021 12:20 14,2 C 17,0 C 15,6 C 19,5 C 19,5 C 5,3 C 86 % 92 % 1020,9 hPa 0,0 l/m 0,2 km/h (0 Bft) SW 225 5 min 11,9 C 19,5 C 2,1 km/h (1 Bft)
05.09.2021 12:25 14,5 C 17,0 C 15,7 C 19,8 C 19,8 C 5,3 C 87 % 91 % 1020,9 hPa 0,0 l/m 0,0 km/h (0 Bft) SO 135 5 min 12,4 C 19,8 C 0,0 km/h (0 Bft)
05.09.2021 12:30 14,6 C 17,0 C 15,7 C 20,0 C 20,0 C 5,4 C 87 % 91 % 1020,9 hPa 0,0 l/m 0,0 km/h (0 Bft) S 180 5 min 12,5 C 20,0 C 0,0 km/h (0 Bft)
05.09.2021 12:35 14,7 C 17,0 C 15,9 C 20,3 C 20,3 C 5,6 C 86 % 91 % 1020,8 hPa 0,0 l/m 0,0 km/h (0 Bft) SW 225 5 min 12,4 C 20,3 C 0,0 km/h (0 Bft)
05.09.2021 12:40 14,8 C 17,0 C 15,9 C 20,6 C 20,6 C 5,8 C 86 % 91 % 1020,8 hPa 0,0 l/m 0,0 km/h (0 Bft) SW 225 5 min 12,5 C 20,6 C 0,0 km/h (0 Bft)
05.09.2021 12:45 15,1 C 16,8 C 16,2 C 20,9 C 20,9 C 5,8 C 86 % 90 % 1020,8 hPa 0,0 l/m 0,2 km/h (0 Bft) O-NO 67 5 min 12,8 C 20,9 C 0,0 km/h (0 Bft)
05.09.2021 12:50 15,4 C 16,9 C 16,2 C 21,0 C 21,0 C 5,6 C 86 % 90 % 1020,8 hPa 0,0 l/m 0,3 km/h (0 Bft) N-NO 22 5 min 13,1 C 21,0 C 0,0 km/h (0 Bft)
05.09.2021 12:55 15,8 C 16,9 C 16,4 C 21,4 C 21,4 C 5,6 C 86 % 90 % 1020,8 hPa 0,0 l/m 0,3 km/h (0 Bft) S-SW 202 5 min 13,5 C 21,4 C 0,0 km/h (0 Bft)
05.09.2021 13:00 16,2 C 16,9 C 16,6 C 21,7 C 21,7 C 5,5 C 86 % 90 % 1020,8 hPa 0,0 l/m 0,3 km/h (0 Bft) W-SW 247 5 min 13,9 C 21,7 C 0,0 km/h (0 Bft)
05.09.2021 13:05 16,5 C 16,8 C 16,7 C 22,4 C 22,4 C 5,9 C 86 % 89 % 1020,8 hPa 0,0 l/m 0,2 km/h (0 Bft) SW 225 5 min 14,1 C 22,4 C 0,0 km/h (0 Bft)
05.09.2021 13:10 16,5 C 16,8 C 16,7 C 22,4 C 22,4 C 5,9 C 86 % 89 % 1020,8 hPa 0,0 l/m 0,2 km/h (0 Bft) SW 225 5 min 14,1 C 22,4 C 0,0 km/h (0 Bft)
05.09.2021 13:15 17,5 C 16,8 C 16,9 C 22,9 C 22,9 C 5,4 C 86 % 89 % 1020,6 hPa 0,0 l/m 0,2 km/h (0 Bft) W-NW 292 5 min 15,1 C 22,9 C 0,0 km/h (0 Bft)
05.09.2021 13:20 17,6 C 16,9 C 16,9 C 22,7 C 22,7 C 5,1 C 85 % 88 % 1020,6 hPa 0,0 l/m 0,3 km/h (0 Bft) N-NW 337 5 min 15,0 C 22,7 C 0,0 km/h (0 Bft)
05.09.2021 13:25 17,6 C 16,8 C 16,9 C 22,6 C 22,6 C 5,0 C 85 % 88 % 1020,6 hPa 0,0 l/m 0,3 km/h (0 Bft) SW 225 5 min 15,0 C 22,6 C 0,0 km/h (0 Bft)
05.09.2021 13:30 17,7 C 16,8 C 16,9 C 22,7 C 22,7 C 5,0 C 85 % 88 % 1020,6 hPa 0,0 l/m 0,0 km/h (0 Bft) NW 315 5 min 15,1 C 22,7 C 0,0 km/h (0 Bft)
05.09.2021 13:35 18,0 C 16,8 C 17,1 C 23,5 C 23,5 C 5,5 C 84 % 88 % 1020,5 hPa 0,0 l/m 0,0 km/h (0 Bft) NW 315 5 min 15,3 C 23,5 C 0,0 km/h (0 Bft)
05.09.2021 13:40 17,9 C 16,8 C 17,1 C 24,3 C 24,3 C 6,4 C 83 % 87 % 1020,5 hPa 0,0 l/m 0,0 km/h (0 Bft) N-NW 337 5 min 15,0 C 24,3 C 0,0 km/h (0 Bft)
05.09.2021 13:45 17,8 C 16,9 C 17,2 C 25,0 C 25,0 C 7,2 C 83 % 86 % 1020,5 hPa 0,0 l/m 0,8 km/h (0 Bft) W 270 5 min 14,9 C 25,0 C 1,8 km/h (1 Bft)
05.09.2021 13:50 17,8 C 16,9 C 17,2 C 25,2 C 25,2 C 7,4 C 83 % 86 % 1020,5 hPa 0,0 l/m 0,8 km/h (0 Bft) O 90 5 min 14,9 C 25,2 C 0,0 km/h (0 Bft)
05.09.2021 13:55 17,7 C 16,9 C 17,2 C 25,0 C 25,0 C 7,3 C 82 % 86 % 1021,5 hPa 0,0 l/m 0,5 km/h (0 Bft) SO 135 5 min 14,6 C 25,0 C 0,0 km/h (0 Bft)
05.09.2021 14:00 17,7 C 16,9 C 17,9 C 25,0 C 25,0 C 7,3 C 82 % 87 % 1021,5 hPa 0,0 l/m 0,5 km/h (0 Bft) SO 135 5 min 14,6 C 25,0 C 0,0 km/h (0 Bft)
05.09.2021 14:05 18,1 C 16,9 C 18,7 C 25,6 C 25,6 C 7,5 C 83 % 86 % 1021,5 hPa 0,0 l/m 0,5 km/h (0 Bft) S 180 5 min 15,2 C 25,6 C 4,8 km/h (1 Bft)
05.09.2021 14:10 18,4 C 16,9 C 18,7 C 25,5 C 25,5 C 7,1 C 83 % 85 % 1021,5 hPa 0,0 l/m 0,5 km/h (0 Bft) O 90 5 min 15,5 C 25,5 C 1,9 km/h (1 Bft)
05.09.2021 14:15 18,8 C 16,9 C 18,3 C 25,9 C 25,9 C 7,1 C 82 % 84 % 1020,4 hPa 0,0 l/m 0,6 km/h (0 Bft) O-NO 67 5 min 15,7 C 25,9 C 0,0 km/h (0 Bft)
05.09.2021 14:20 18,7 C 16,9 C 18,2 C 25,4 C 25,4 C 6,7 C 81 % 84 % 1020,4 hPa 0,0 l/m 0,8 km/h (0 Bft) NW 315 5 min 15,4 C 25,4 C 2,7 km/h (1 Bft)
05.09.2021 14:25 18,9 C 16,9 C 18,1 C 25,6 C 25,6 C 6,7 C 81 % 84 % 1020,4 hPa 0,0 l/m 0,5 km/h (0 Bft) O-SO 112 5 min 15,6 C 25,6 C 6,4 km/h (2 Bft)
05.09.2021 14:30 19,1 C 16,9 C 18,1 C 25,9 C 25,9 C 6,8 C 81 % 84 % 1020,4 hPa 0,0 l/m 0,8 km/h (0 Bft) SW 225 5 min 15,8 C 25,9 C 3,1 km/h (1 Bft)
05.09.2021 14:35 19,2 C 16,9 C 18,2 C 26,0 C 26,0 C 6,8 C 80 % 83 % 1020,1 hPa 0,0 l/m 1,1 km/h (1 Bft) N-NO 22 5 min 15,7 C 26,0 C 0,0 km/h (0 Bft)
05.09.2021 14:40 19,2 C 16,9 C 18,2 C 26,3 C 26,3 C 7,1 C 80 % 84 % 1020,1 hPa 0,0 l/m 1,0 km/h (0 Bft) S 180 5 min 15,7 C 26,3 C 0,0 km/h (0 Bft)
05.09.2021 14:45 19,2 C 16,9 C 18,2 C 26,5 C 26,5 C 7,3 C 79 % 83 % 1020,1 hPa 0,0 l/m 0,5 km/h (0 Bft) N-NW 337 5 min 15,5 C 26,5 C 2,6 km/h (1 Bft)
05.09.2021 14:50 19,2 C 16,9 C 18,2 C 26,5 C 26,5 C 7,3 C 79 % 83 % 1020,1 hPa 0,0 l/m 0,8 km/h (0 Bft) W 270 5 min 15,5 C 26,5 C 3,7 km/h (1 Bft)
05.09.2021 14:55 19,3 C 16,9 C 18,3 C 26,2 C 26,2 C 6,9 C 79 % 83 % 1020,3 hPa 0,0 l/m 1,3 km/h (1 Bft) W 270 5 min 15,6 C 26,2 C 2,1 km/h (1 Bft)
05.09.2021 15:00 19,2 C 16,9 C 18,4 C 26,2 C 26,2 C 7,0 C 79 % 84 % 1020,3 hPa 0,0 l/m 1,8 km/h (1 Bft) W-SW 247 5 min 15,5 C 26,2 C 0,0 km/h (0 Bft)
05.09.2021 15:05 19,3 C 17,0 C 18,6 C 26,5 C 26,5 C 7,2 C 79 % 84 % 1020,3 hPa 0,0 l/m 1,1 km/h (1 Bft) W-SW 247 5 min 15,6 C 26,5 C 6,8 km/h (2 Bft)
05.09.2021 15:10 19,4 C 16,9 C 18,7 C 26,7 C 26,7 C 7,3 C 79 % 83 % 1020,3 hPa 0,0 l/m 1,1 km/h (1 Bft) W-NW 292 5 min 15,7 C 26,7 C 3,2 km/h (1 Bft)
05.09.2021 15:15 19,5 C 16,9 C 18,8 C 26,7 C 26,7 C 7,2 C 79 % 83 % 1020,3 hPa 0,0 l/m 1,4 km/h (1 Bft) O-SO 112 5 min 15,8 C 26,7 C 0,0 km/h (0 Bft)
05.09.2021 15:20 19,5 C 16,9 C 18,8 C 26,6 C 26,6 C 7,1 C 78 % 82 % 1020,3 hPa 0,0 l/m 1,4 km/h (1 Bft) O-NO 67 5 min 15,6 C 26,6 C 2,9 km/h (1 Bft)
05.09.2021 15:25 19,2 C 16,9 C 18,7 C 26,1 C 26,1 C 6,9 C 78 % 82 % 1020,3 hPa 0,0 l/m 1,0 km/h (0 Bft) O-NO 67 5 min 15,3 C 26,1 C 0,0 km/h (0 Bft)
05.09.2021 15:30 19,3 C 16,9 C 18,7 C 26,3 C 26,3 C 7,0 C 79 % 82 % 1020,3 hPa 0,0 l/m 1,6 km/h (1 Bft) W 270 5 min 15,6 C 26,3 C 2,9 km/h (1 Bft)
05.09.2021 15:35 19,3 C 17,0 C 18,8 C 26,6 C 26,6 C 7,3 C 78 % 82 % 1020,2 hPa 0,0 l/m 1,3 km/h (1 Bft) O-NO 67 5 min 15,4 C 26,6 C 0,0 km/h (0 Bft)
05.09.2021 15:40 19,5 C 17,0 C 18,8 C 26,5 C 26,5 C 7,0 C 78 % 82 % 1020,2 hPa 0,0 l/m 0,8 km/h (0 Bft) O 90 5 min 15,6 C 26,5 C 0,0 km/h (0 Bft)
05.09.2021 15:45 19,5 C 17,0 C 19,0 C 26,7 C 26,7 C 7,2 C 78 % 82 % 1020,2 hPa 0,0 l/m 1,0 km/h (0 Bft) O-NO 67 5 min 15,6 C 26,7 C 2,3 km/h (1 Bft)
05.09.2021 15:50 19,3 C 17,0 C 18,9 C 26,4 C 26,4 C 7,1 C 78 % 81 % 1020,2 hPa 0,0 l/m 1,6 km/h (1 Bft) NW 315 5 min 15,4 C 26,4 C 3,2 km/h (1 Bft)
05.09.2021 15:55 19,4 C 17,0 C 19,0 C 26,5 C 26,5 C 7,1 C 78 % 81 % 1020,2 hPa 0,0 l/m 1,3 km/h (1 Bft) S 180 5 min 15,5 C 26,5 C 0,0 km/h (0 Bft)
05.09.2021 16:00 19,5 C 17,0 C 19,0 C 26,7 C 26,7 C 7,2 C 78 % 81 % 1020,2 hPa 0,0 l/m 0,8 km/h (0 Bft) O-SO 112 5 min 15,6 C 26,7 C 0,0 km/h (0 Bft)
05.09.2021 16:05 19,6 C 17,1 C 19,1 C 27,1 C 27,1 C 7,5 C 79 % 81 % 1020,2 hPa 0,0 l/m 0,3 km/h (0 Bft) O-SO 112 5 min 15,9 C 27,1 C 1,8 km/h (1 Bft)
05.09.2021 16:10 19,6 C 17,1 C 19,1 C 26,9 C 26,9 C 7,3 C 79 % 81 % 1020,2 hPa 0,0 l/m 1,0 km/h (0 Bft) O 90 5 min 15,9 C 26,9 C 3,5 km/h (1 Bft)
05.09.2021 16:15 19,5 C 17,1 C 19,0 C 25,8 C 25,8 C 6,3 C 78 % 81 % 1019,9 hPa 0,0 l/m 1,8 km/h (1 Bft) O-NO 67 5 min 15,6 C 25,8 C 1,6 km/h (1 Bft)
05.09.2021 16:20 19,5 C 17,1 C 19,1 C 24,9 C 24,9 C 5,4 C 78 % 81 % 1019,9 hPa 0,0 l/m 1,3 km/h (1 Bft) O 90 5 min 15,6 C 24,9 C 0,0 km/h (0 Bft)
05.09.2021 16:25 19,5 C 17,1 C 19,1 C 23,9 C 23,9 C 4,4 C 78 % 80 % 1019,9 hPa 0,0 l/m 1,6 km/h (1 Bft) W 270 5 min 15,6 C 23,9 C 4,3 km/h (1 Bft)
05.09.2021 16:30 19,7 C 17,1 C 19,2 C 23,1 C 23,1 C 3,4 C 79 % 80 % 1019,9 hPa 0,0 l/m 2,3 km/h (1 Bft) N-NO 22 5 min 16,0 C 23,1 C 2,6 km/h (1 Bft)
05.09.2021 16:35 19,7 C 17,2 C 19,3 C 22,3 C 22,3 C 2,6 C 78 % 81 % 1020,5 hPa 0,0 l/m 2,4 km/h (1 Bft) NW 315 0 min 15,8 C 22,3 C 0,0 km/h (0 Bft)
05.09.2021 16:40 19,8 C 17,2 C 19,3 C 22,2 C 22,2 C 2,4 C 78 % 81 % 1020,5 hPa 0,0 l/m 1,4 km/h (1 Bft) O 90 0 min 15,8 C 22,2 C 0,0 km/h (0 Bft)
05.09.2021 16:45 19,9 C 17,2 C 19,4 C 21,8 C 21,8 C 1,9 C 79 % 81 % 1020,5 hPa 0,0 l/m 1,0 km/h (0 Bft) S-SW 202 0 min 16,1 C 21,8 C 2,9 km/h (1 Bft)
05.09.2021 16:50 20,3 C 17,2 C 19,5 C 21,7 C 21,7 C 1,4 C 78 % 81 % 1020,5 hPa 0,0 l/m 1,3 km/h (1 Bft) W-SW 247 0 min 16,3 C 21,7 C 1,9 km/h (1 Bft)
05.09.2021 16:55 20,3 C 17,2 C 19,5 C 21,6 C 21,6 C 1,3 C 78 % 81 % 1019,9 hPa 0,0 l/m 1,3 km/h (1 Bft) W 270 0 min 16,3 C 21,6 C 4,0 km/h (1 Bft)
05.09.2021 17:00 20,4 C 17,2 C 19,5 C 21,6 C 21,6 C 1,2 C 78 % 81 % 1019,9 hPa 0,0 l/m 1,3 km/h (1 Bft) W-SW 247 0 min 16,4 C 21,6 C 0,0 km/h (0 Bft)
05.09.2021 17:05 20,4 C 17,2 C 19,6 C 21,5 C 21,5 C 1,1 C 77 % 81 % 1019,9 hPa 0,0 l/m 1,4 km/h (1 Bft) W 270 0 min 16,2 C 21,5 C 3,2 km/h (1 Bft)
05.09.2021 17:10 20,5 C 17,2 C 19,6 C 21,5 C 21,5 C 1,0 C 77 % 81 % 1019,9 hPa 0,0 l/m 0,8 km/h (0 Bft) O 90 0 min 16,3 C 21,5 C 0,0 km/h (0 Bft)
05.09.2021 17:15 20,5 C 17,3 C 19,5 C 21,5 C 21,5 C 1,0 C 77 % 80 % 1019,7 hPa 0,0 l/m 0,6 km/h (0 Bft) NW 315 0 min 16,3 C 21,5 C 3,4 km/h (1 Bft)
05.09.2021 17:20 20,5 C 17,3 C 19,6 C 21,4 C 21,4 C 0,9 C 77 % 80 % 1019,7 hPa 0,0 l/m 1,0 km/h (0 Bft) N-NW 337 0 min 16,3 C 21,4 C 5,6 km/h (1 Bft)
05.09.2021 17:25 20,5 C 17,3 C 19,6 C 21,4 C 21,4 C 0,9 C 77 % 79 % 1019,7 hPa 0,0 l/m 1,3 km/h (1 Bft) W-NW 292 0 min 16,3 C 21,4 C 4,0 km/h (1 Bft)
05.09.2021 17:30 20,6 C 17,3 C 19,6 C 21,4 C 21,4 C 0,8 C 77 % 80 % 1019,7 hPa 0,0 l/m 1,1 km/h (1 Bft) S-SW 202 0 min 16,4 C 21,4 C 0,0 km/h (0 Bft)
05.09.2021 17:35 20,7 C 17,3 C 19,7 C 21,4 C 21,4 C 0,7 C 76 % 79 % 1019,7 hPa 0,0 l/m 0,6 km/h (0 Bft) W 270 0 min 16,3 C 21,4 C 0,0 km/h (0 Bft)
05.09.2021 17:40 20,7 C 17,3 C 19,9 C 21,4 C 21,4 C 0,7 C 76 % 80 % 1019,7 hPa 0,0 l/m 0,8 km/h (0 Bft) W-SW 247 0 min 16,3 C 21,4 C 2,1 km/h (1 Bft)
05.09.2021 17:45 20,7 C 17,4 C 19,9 C 21,4 C 21,4 C 0,7 C 76 % 79 % 1019,7 hPa 0,0 l/m 1,3 km/h (1 Bft) NW 315 0 min 16,3 C 21,4 C 0,0 km/h (0 Bft)
05.09.2021 17:50 20,6 C 17,4 C 19,9 C 21,4 C 21,4 C 0,8 C 76 % 80 % 1019,7 hPa 0,0 l/m 0,6 km/h (0 Bft) N-NW 337 0 min 16,2 C 21,4 C 0,0 km/h (0 Bft)
05.09.2021 17:55 20,7 C 17,3 C 19,9 C 21,7 C 21,7 C 1,0 C 77 % 80 % 1019,5 hPa 0,0 l/m 0,3 km/h (0 Bft) W-SW 247 0 min 16,5 C 21,7 C 2,6 km/h (1 Bft)
05.09.2021 18:00 20,7 C 17,3 C 19,8 C 22,0 C 22,0 C 1,3 C 76 % 79 % 1019,5 hPa 0,0 l/m 0,2 km/h (0 Bft) O-NO 67 0 min 16,3 C 22,0 C 0,0 km/h (0 Bft)
05.09.2021 18:05 20,7 C 17,4 C 19,7 C 22,0 C 22,0 C 1,3 C 76 % 79 % 1019,5 hPa 0,0 l/m 0,2 km/h (0 Bft) N-NO 22 0 min 16,3 C 22,0 C 0,0 km/h (0 Bft)
05.09.2021 18:10 20,7 C 17,5 C 19,7 C 21,8 C 21,8 C 1,1 C 77 % 80 % 1019,5 hPa 0,0 l/m 0,2 km/h (0 Bft) N-NO 22 0 min 16,5 C 21,8 C 0,0 km/h (0 Bft)
05.09.2021 18:15 20,7 C 17,5 C 19,6 C 21,4 C 21,4 C 0,7 C 77 % 80 % 1019,8 hPa 0,0 l/m 0,3 km/h (0 Bft) W-SW 247 0 min 16,5 C 21,4 C 2,1 km/h (1 Bft)
05.09.2021 18:20 20,7 C 17,5 C 19,6 C 21,3 C 21,3 C 0,6 C 77 % 80 % 1019,8 hPa 0,0 l/m 0,5 km/h (0 Bft) NW 315 0 min 16,5 C 21,3 C 0,0 km/h (0 Bft)
05.09.2021 18:25 20,7 C 17,5 C 19,6 C 21,2 C 21,2 C 0,5 C 77 % 81 % 1019,8 hPa 0,0 l/m 0,5 km/h (0 Bft) W-SW 247 0 min 16,5 C 21,2 C 0,0 km/h (0 Bft)
05.09.2021 18:30 20,7 C 17,5 C 19,5 C 21,1 C 21,1 C 0,4 C 77 % 81 % 1019,8 hPa 0,0 l/m 0,3 km/h (0 Bft) NW 315 0 min 16,5 C 21,1 C 0,0 km/h (0 Bft)
05.09.2021 18:35 20,6 C 17,6 C 19,3 C 20,7 C 20,7 C 0,1 C 77 % 81 % 1019,4 hPa 0,0 l/m 0,0 km/h (0 Bft) NW 315 0 min 16,4 C 20,7 C 0,0 km/h (0 Bft)
05.09.2021 18:40 20,5 C 17,6 C 19,3 C 20,5 C 20,5 C 0,0 C 77 % 81 % 1019,4 hPa 0,0 l/m 0,2 km/h (0 Bft) W-SW 247 0 min 16,3 C 20,5 C 3,4 km/h (1 Bft)
05.09.2021 18:45 20,4 C 17,6 C 19,1 C 20,3 C 20,2 C 0,0 C 77 % 82 % 1019,4 hPa 0,0 l/m 0,3 km/h (0 Bft) O-NO 67 0 min 16,2 C 20,2 C 0,0 km/h (0 Bft)
05.09.2021 18:50 20,3 C 17,6 C 18,9 C 20,2 C 20,1 C 0,0 C 77 % 82 % 1019,4 hPa 0,0 l/m 0,2 km/h (0 Bft) O-NO 67 0 min 16,1 C 20,1 C 0,0 km/h (0 Bft)
05.09.2021 18:55 20,1 C 17,6 C 18,7 C 20,0 C 19,7 C 0,0 C 78 % 83 % 1019,4 hPa 0,0 l/m 0,0 km/h (0 Bft) O-NO 67 0 min 16,1 C 19,7 C 0,0 km/h (0 Bft)
05.09.2021 19:00 20,0 C 17,7 C 18,5 C 19,8 C 19,5 C 0,0 C 78 % 83 % 1019,4 hPa 0,0 l/m 0,0 km/h (0 Bft) O-NO 67 0 min 16,0 C 19,5 C 0,0 km/h (0 Bft)
05.09.2021 19:05 19,9 C 17,7 C 18,3 C 19,7 C 19,2 C 0,0 C 78 % 84 % 1019,4 hPa 0,0 l/m 0,0 km/h (0 Bft) O-NO 67 0 min 15,9 C 19,2 C 0,0 km/h (0 Bft)
05.09.2021 19:10 19,8 C 17,7 C 18,3 C 19,5 C 19,0 C 0,0 C 78 % 84 % 1019,4 hPa 0,0 l/m 0,0 km/h (0 Bft) O-NO 67 0 min 15,8 C 19,0 C 0,0 km/h (0 Bft)
05.09.2021 19:15 19,6 C 17,7 C 18,1 C 19,3 C 18,8 C 0,0 C 79 % 85 % 1019,5 hPa 0,0 l/m 0,0 km/h (0 Bft) O-NO 67 0 min 15,9 C 18,8 C 0,0 km/h (0 Bft)
05.09.2021 19:20 19,4 C 17,8 C 17,9 C 19,1 C 18,6 C 0,0 C 79 % 85 % 1019,5 hPa 0,0 l/m 0,0 km/h (0 Bft) O-NO 67 0 min 15,7 C 18,6 C 0,0 km/h (0 Bft)
05.09.2021 19:25 19,3 C 17,8 C 17,7 C 18,9 C 18,2 C 0,0 C 80 % 85 % 1019,5 hPa 0,0 l/m 0,0 km/h (0 Bft) O-NO 67 0 min 15,8 C 18,2 C 0,0 km/h (0 Bft)
05.09.2021 19:30 19,1 C 17,8 C 17,6 C 18,7 C 18,0 C 0,0 C 80 % 86 % 1019,5 hPa 0,0 l/m 0,0 km/h (0 Bft) O-NO 67 0 min 15,6 C 18,0 C 0,0 km/h (0 Bft)
05.09.2021 19:35 18,9 C 17,9 C 17,5 C 18,5 C 17,6 C 0,0 C 80 % 86 % 1019,6 hPa 0,0 l/m 0,0 km/h (0 Bft) O-NO 67 0 min 15,4 C 17,6 C 0,0 km/h (0 Bft)
05.09.2021 19:40 18,8 C 17,9 C 17,4 C 18,3 C 17,4 C 0,0 C 80 % 86 % 1019,6 hPa 0,0 l/m 0,0 km/h (0 Bft) O-NO 67 0 min 15,3 C 17,4 C 0,0 km/h (0 Bft)
05.09.2021 19:45 18,7 C 17,9 C 17,1 C 18,1 C 17,0 C 0,0 C 80 % 87 % 1019,6 hPa 0,0 l/m 0,0 km/h (0 Bft) O-NO 67 0 min 15,2 C 17,0 C 0,0 km/h (0 Bft)
05.09.2021 19:50 18,5 C 18,0 C 16,9 C 17,9 C 16,8 C 0,0 C 80 % 87 % 1019,6 hPa 0,0 l/m 0,0 km/h (0 Bft) O-NO 67 0 min 15,0 C 16,8 C 0,0 km/h (0 Bft)
05.09.2021 19:55 18,3 C 18,1 C 16,7 C 17,7 C 16,4 C 0,0 C 80 % 88 % 1019,7 hPa 0,0 l/m 0,0 km/h (0 Bft) O-NO 67 0 min 14,8 C 16,4 C 0,0 km/h (0 Bft)
05.09.2021 20:00 18,0 C 18,1 C 16,6 C 17,4 C 16,3 C 0,0 C 81 % 88 % 1019,7 hPa 0,0 l/m 0,0 km/h (0 Bft) O-NO 67 0 min 14,7 C 16,3 C 0,0 km/h (0 Bft)
05.09.2021 20:05 17,9 C 18,1 C 16,3 C 17,3 C 16,0 C 0,0 C 81 % 88 % 1019,7 hPa 0,0 l/m 0,0 km/h (0 Bft) O-NO 67 0 min 14,6 C 16,0 C 0,0 km/h (0 Bft)
05.09.2021 20:10 17,6 C 18,1 C 16,2 C 17,0 C 15,9 C 0,0 C 82 % 88 % 1019,7 hPa 0,0 l/m 0,0 km/h (0 Bft) O-NO 67 0 min 14,5 C 15,9 C 0,0 km/h (0 Bft)
05.09.2021 20:15 17,4 C 18,1 C 16,1 C 16,8 C 15,7 C 0,0 C 83 % 89 % 1020,0 hPa 0,0 l/m 0,0 km/h (0 Bft) O-NO 67 0 min 14,5 C 15,7 C 0,0 km/h (0 Bft)
05.09.2021 20:20 17,2 C 18,1 C 15,9 C 16,7 C 15,6 C 0,0 C 83 % 89 % 1020,0 hPa 0,0 l/m 0,0 km/h (0 Bft) O-NO 67 0 min 14,3 C 15,6 C 0,0 km/h (0 Bft)
05.09.2021 20:25 17,1 C 18,2 C 15,7 C 16,5 C 15,4 C 0,0 C 84 % 89 % 1020,0 hPa 0,0 l/m 0,0 km/h (0 Bft) O-NO 67 0 min 14,4 C 15,4 C 0,0 km/h (0 Bft)
05.09.2021 20:30 16,9 C 18,2 C 15,6 C 16,4 C 15,3 C 0,0 C 84 % 89 % 1020,0 hPa 0,0 l/m 0,0 km/h (0 Bft) O-NO 67 0 min 14,2 C 15,3 C 0,0 km/h (0 Bft)
05.09.2021 20:35 16,7 C 18,1 C 15,5 C 16,2 C 15,2 C 0,0 C 84 % 90 % 1019,9 hPa 0,0 l/m 0,0 km/h (0 Bft) O-NO 67 0 min 14,0 C 15,2 C 0,0 km/h (0 Bft)
05.09.2021 20:40 16,7 C 18,2 C 15,4 C 16,2 C 15,2 C 0,0 C 85 % 90 % 1019,9 hPa 0,0 l/m 0,0 km/h (0 Bft) O-NO 67 0 min 14,2 C 15,2 C 0,0 km/h (0 Bft)
05.09.2021 20:45 16,5 C 18,2 C 15,3 C 16,0 C 15,1 C 0,0 C 85 % 90 % 1019,9 hPa 0,0 l/m 0,0 km/h (0 Bft) O-NO 67 0 min 14,0 C 15,1 C 0,0 km/h (0 Bft)
05.09.2021 20:50 16,2 C 18,2 C 15,2 C 15,8 C 15,1 C 0,0 C 85 % 90 % 1019,9 hPa 0,0 l/m 0,0 km/h (0 Bft) O-NO 67 0 min 13,7 C 15,1 C 0,0 km/h (0 Bft)
05.09.2021 20:55 16,1 C 18,2 C 15,1 C 15,7 C 15,0 C 0,0 C 85 % 90 % 1020,1 hPa 0,0 l/m 0,0 km/h (0 Bft) O-NO 67 0 min 13,6 C 15,0 C 0,0 km/h (0 Bft)
05.09.2021 21:00 16,0 C 18,2 C 15,0 C 15,6 C 14,8 C 0,0 C 86 % 91 % 1020,1 hPa 0,0 l/m 0,0 km/h (0 Bft) O-NO 67 0 min 13,7 C 14,8 C 0,0 km/h (0 Bft)
05.09.2021 21:05 15,8 C 18,2 C 14,9 C 15,5 C 14,8 C 0,0 C 86 % 91 % 1020,1 hPa 0,0 l/m 0,0 km/h (0 Bft) O-NO 67 0 min 13,5 C 14,8 C 0,0 km/h (0 Bft)
05.09.2021 21:10 15,7 C 18,2 C 14,8 C 15,4 C 14,7 C 0,0 C 86 % 91 % 1020,1 hPa 0,0 l/m 0,0 km/h (0 Bft) O-NO 67 0 min 13,4 C 14,7 C 0,0 km/h (0 Bft)
05.09.2021 21:15 15,5 C 18,2 C 14,7 C 15,2 C 14,6 C 0,0 C 86 % 91 % 1020,1 hPa 0,0 l/m 0,0 km/h (0 Bft) O-NO 67 0 min 13,2 C 14,6 C 0,0 km/h (0 Bft)
05.09.2021 21:20 15,5 C 18,2 C 14,7 C 15,2 C 14,5 C 0,0 C 86 % 91 % 1020,1 hPa 0,0 l/m 0,0 km/h (0 Bft) O-NO 67 0 min 13,2 C 14,5 C 0,0 km/h (0 Bft)
05.09.2021 21:25 15,2 C 18,2 C 14,7 C 14,9 C 14,3 C 0,0 C 86 % 92 % 1020,1 hPa 0,0 l/m 0,0 km/h (0 Bft) O-NO 67 0 min 12,9 C 14,3 C 0,0 km/h (0 Bft)
05.09.2021 21:30 15,2 C 18,2 C 14,7 C 14,9 C 14,3 C 0,0 C 86 % 92 % 1020,1 hPa 0,0 l/m 0,0 km/h (0 Bft) O-NO 67 0 min 12,9 C 14,3 C 0,0 km/h (0 Bft)
05.09.2021 21:35 15,1 C 18,3 C 14,7 C 14,8 C 14,1 C 0,0 C 86 % 92 % 1020,1 hPa 0,0 l/m 0,0 km/h (0 Bft) O-NO 67 0 min 12,8 C 14,1 C 0,0 km/h (0 Bft)
05.09.2021 21:40 14,9 C 18,3 C 14,5 C 14,6 C 14,1 C 0,0 C 86 % 92 % 1020,1 hPa 0,0 l/m 0,0 km/h (0 Bft) O-NO 67 0 min 12,6 C 14,1 C 0,0 km/h (0 Bft)
05.09.2021 21:45 14,8 C 18,3 C 14,4 C 14,6 C 14,1 C 0,0 C 87 % 92 % 1020,1 hPa 0,0 l/m 0,0 km/h (0 Bft) O-NO 67 0 min 12,7 C 14,1 C 0,0 km/h (0 Bft)
05.09.2021 21:50 14,7 C 18,3 C 14,4 C 14,5 C 14,1 C 0,0 C 87 % 92 % 1020,1 hPa 0,0 l/m 0,0 km/h (0 Bft) S 180 0 min 12,6 C 14,1 C 0,0 km/h (0 Bft)
05.09.2021 21:55 14,7 C 18,3 C 14,6 C 14,5 C 14,2 C 0,0 C 87 % 92 % 1019,9 hPa 0,0 l/m 0,0 km/h (0 Bft) S 180 0 min 12,6 C 14,2 C 0,0 km/h (0 Bft)
05.09.2021 22:00 14,5 C 18,3 C 14,4 C 14,4 C 14,1 C 0,0 C 87 % 92 % 1019,9 hPa 0,0 l/m 0,0 km/h (0 Bft) S 180 0 min 12,4 C 14,1 C 0,0 km/h (0 Bft)
05.09.2021 22:05 14,4 C 18,3 C 14,3 C 14,3 C 14,1 C 0,0 C 86 % 92 % 1019,9 hPa 0,0 l/m 0,0 km/h (0 Bft) S 180 0 min 12,1 C 14,1 C 0,0 km/h (0 Bft)
05.09.2021 22:10 14,4 C 18,3 C 14,2 C 14,2 C 13,9 C 0,0 C 86 % 92 % 1019,9 hPa 0,0 l/m 0,0 km/h (0 Bft) S 180 0 min 12,1 C 13,9 C 0,0 km/h (0 Bft)
05.09.2021 22:15 14,2 C 18,2 C 14,1 C 14,1 C 14,0 C 0,0 C 86 % 92 % 1019,9 hPa 0,0 l/m 0,0 km/h (0 Bft) S 180 0 min 11,9 C 14,0 C 0,0 km/h (0 Bft)
05.09.2021 22:20 14,2 C 18,2 C 14,1 C 14,1 C 13,9 C 0,0 C 86 % 92 % 1019,9 hPa 0,0 l/m 0,0 km/h (0 Bft) S 180 0 min 11,9 C 13,9 C 0,0 km/h (0 Bft)
05.09.2021 22:25 14,0 C 18,3 C 14,0 C 13,9 C 13,7 C 0,0 C 86 % 92 % 1019,9 hPa 0,0 l/m 0,0 km/h (0 Bft) S 180 0 min 11,7 C 13,7 C 0,0 km/h (0 Bft)
05.09.2021 22:30 14,1 C 18,2 C 13,9 C 13,9 C 13,6 C 0,0 C 86 % 92 % 1019,9 hPa 0,0 l/m 0,0 km/h (0 Bft) S 180 0 min 11,8 C 13,6 C 0,0 km/h (0 Bft)
05.09.2021 22:35 13,9 C 18,2 C 13,9 C 13,8 C 13,6 C 0,0 C 86 % 92 % 1020,2 hPa 0,0 l/m 0,0 km/h (0 Bft) S 180 0 min 11,6 C 13,6 C 0,0 km/h (0 Bft)
05.09.2021 22:40 13,9 C 18,2 C 13,8 C 13,8 C 13,6 C 0,0 C 86 % 92 % 1020,2 hPa 0,0 l/m 0,0 km/h (0 Bft) S 180 0 min 11,6 C 13,6 C 0,0 km/h (0 Bft)
05.09.2021 22:45 13,7 C 18,2 C 13,8 C 13,6 C 13,4 C 0,0 C 87 % 93 % 1020,2 hPa 0,0 l/m 0,0 km/h (0 Bft) S 180 0 min 11,6 C 13,4 C 0,0 km/h (0 Bft)
05.09.2021 22:50 13,7 C 18,2 C 13,7 C 13,6 C 13,4 C 0,0 C 86 % 92 % 1020,2 hPa 0,0 l/m 0,0 km/h (0 Bft) S 180 0 min 11,4 C 13,4 C 0,0 km/h (0 Bft)
05.09.2021 22:55 13,5 C 18,2 C 13,6 C 13,5 C 13,5 C 0,0 C 87 % 93 % 1019,9 hPa 0,0 l/m 0,0 km/h (0 Bft) S 180 0 min 11,4 C 13,5 C 0,0 km/h (0 Bft)
05.09.2021 23:00 13,4 C 18,2 C 13,7 C 13,6 C 13,6 C 0,2 C 87 % 93 % 1019,9 hPa 0,0 l/m 0,0 km/h (0 Bft) S 180 0 min 11,3 C 13,6 C 0,0 km/h (0 Bft)
05.09.2021 23:05 13,3 C 18,2 C 13,7 C 13,7 C 13,7 C 0,4 C 87 % 93 % 1019,9 hPa 0,0 l/m 0,0 km/h (0 Bft) S 180 0 min 11,2 C 13,7 C 0,0 km/h (0 Bft)
05.09.2021 23:10 13,3 C 18,2 C 13,8 C 13,8 C 13,8 C 0,5 C 87 % 93 % 1019,9 hPa 0,0 l/m 0,0 km/h (0 Bft) S 180 0 min 11,2 C 13,8 C 0,0 km/h (0 Bft)
05.09.2021 23:15 13,2 C 18,2 C 13,9 C 13,9 C 13,9 C 0,7 C 87 % 93 % 1020,4 hPa 0,0 l/m 0,0 km/h (0 Bft) S 180 0 min 11,1 C 13,9 C 0,0 km/h (0 Bft)
05.09.2021 23:20 13,2 C 18,2 C 13,9 C 13,9 C 13,9 C 0,7 C 87 % 93 % 1020,4 hPa 0,0 l/m 0,0 km/h (0 Bft) S 180 0 min 11,1 C 13,9 C 0,0 km/h (0 Bft)
05.09.2021 23:25 13,1 C 18,2 C 13,9 C 13,8 C 13,8 C 0,7 C 87 % 93 % 1020,4 hPa 0,0 l/m 0,0 km/h (0 Bft) S 180 0 min 11,0 C 13,8 C 0,0 km/h (0 Bft)
05.09.2021 23:30 13,1 C 18,2 C 13,9 C 13,8 C 13,8 C 0,7 C 87 % 93 % 1020,4 hPa 0,0 l/m 0,0 km/h (0 Bft) S 180 0 min 11,0 C 13,8 C 0,0 km/h (0 Bft)
05.09.2021 23:35 13,1 C 18,2 C 13,8 C 13,6 C 13,6 C 0,5 C 87 % 93 % 1021,1 hPa 0,0 l/m 0,0 km/h (0 Bft) S 180 0 min 11,0 C 13,6 C 0,0 km/h (0 Bft)
05.09.2021 23:40 13,1 C 18,2 C 13,7 C 13,5 C 13,5 C 0,4 C 87 % 93 % 1021,1 hPa 0,0 l/m 0,0 km/h (0 Bft) S 180 0 min 11,0 C 13,5 C 0,0 km/h (0 Bft)
05.09.2021 23:45 12,9 C 18,2 C 13,6 C 13,5 C 13,5 C 0,6 C 87 % 93 % 1021,1 hPa 0,0 l/m 0,0 km/h (0 Bft) S 180 0 min 10,8 C 13,5 C 0,0 km/h (0 Bft)
05.09.2021 23:50 12,8 C 18,2 C 13,6 C 13,5 C 13,5 C 0,7 C 86 % 93 % 1021,1 hPa 0,0 l/m 0,0 km/h (0 Bft) S 180 0 min 10,5 C 13,5 C 0,0 km/h (0 Bft)
05.09.2021 23:55 12,9 C 18,2 C 13,6 C 13,4 C 13,4 C 0,5 C 87 % 93 % 1020,4 hPa 0,0 l/m 0,0 km/h (0 Bft) S 180 0 min 10,8 C 13,4 C 0,0 km/h (0 Bft)
_ Min-Zeit 02:35 12:45 01:55 00:20 00:00 00:00 17:35 17:25 00:00 - 00:00 - - - 02:35 00:00 00:00
Minimum _ 7,9 C 16,8 C 9,4 C 9,1 C 9,1 C 0,0 C 76 % 79 % 1018,4 hPa - 0,0 km/h (0 Bft) - - - 5,9 C 9,1 C 0,0 km/h (0 Bft)
_ Max-Zeit 17:35 21:35 17:40 16:05 16:05 14:05 06:50 08:35 13:55 00:00 16:35 - - 06:40 17:55 16:05 15:05
Maximum _ 20,7 C 18,3 C 19,9 C 27,1 C 27,1 C 7,5 C 88 % 95 % 1021,5 hPa 0,0 l/m 2,4 km/h
NW (1 Bft)
- - 5 min 16,5 C 27,1 C 6,8 km/h
W-SW (2 Bft)
Durchschnitt _ 13,7 C 17,3 C 14,1 C 15,7 C 15,6 C 2,1 C 85 % 90 % 1019,9 hPa #0,0 l/m 0,3 km/h (0 Bft) O-NO - #6:00 h 11,1 C 15,6 C 0,4 km/h (0 Bft)
2021 www.wetterstation-wechselburg.de